Weather History for Hurlburt Field, FL

Change the Weather History Date:

Sunday, July 21, 2013

  Actual Average Record
Temperature  
Mean Temperature 80 °F -  
Max Temperature 85 °F 87 °F 93 °F (1999)
Min Temperature 75 °F 73 °F 69 °F (2006)
Cooling Degree Days 15    
Growing Degree Days 30 (Base 50)    
Moisture  
Dew Point 72 °F    
Average Humidity 76    
Maximum Humidity 94    
Minimum Humidity 65    
Precipitation  
Precipitation 0.23 in - - ()
Sea Level Pressure  
Sea Level Pressure 30.05 in    
Wind  
Wind Speed 8 mph (WSW)    
Max Wind Speed 23 mph    
Max Gust Speed 34 mph    
Visibility 9 miles    
Events Rain , Thunderstorm    
Averages and records for this station are not official NWS values.
T = Trace of Precipitation, MM = Missing Value Source: NWS Daily Summary

Daily Weather History Graph

Daily Weather History Graph

Search for Another Location

Airport:

Trip Planner

Search our weather history database for the weather conditions in past years. The results will help you decide how hot, cold, wet, or windy it might be!

Date:

Astronomy

Jul. 21, 2013 Rise Set
Actual Time 5:58 AM CDT 7:47 PM CDT
Civil Twilight 5:31 AM CDT 8:14 PM CDT
Nautical Twilight 4:59 AM CDT 8:46 PM CDT
Astronomical Twilight 4:25 AM CDT 9:20 PM CDT
Moon 6:48 PM CDT (7/21) 4:42 AM CDT (7/21)
Length of Visible Light 14h 42m
Length of Day
13h 49m
Waxing Gibbous, 98% of the Moon is Illuminated
Jul 21
Waxing Gibbous
Jul 22
Full
Jul 29
Last Quarter
Aug 6
New
Aug 14
First Quarter

Hourly Weather History & Observations

Time (CDT) Temp. Heat Index Dew Point Humidity Pressure Visibility Wind Dir Wind Speed Gust Speed Precip Events Conditions
12:18 AM 82.4 °F 88.2 °F 73.4 °F 74% 30.02 in 10.0 mi SW 6.9 mph - N/A   Overcast
12:58 AM 81.7 °F 87.3 °F 73.8 °F 77% 30.02 in 10.0 mi SW 5.8 mph - N/A   Mostly Cloudy
1:58 AM 81.1 °F 85.6 °F 72.3 °F 74% 30.01 in 10.0 mi SW 4.6 mph - N/A   Scattered Clouds
2:58 AM 80.6 °F 84.6 °F 71.6 °F 74% 30.01 in 10.0 mi SW 5.8 mph - N/A   Clear
3:16 AM 80.6 °F 85.4 °F 73.4 °F 79% 30.00 in 10.0 mi SW 4.6 mph - N/A   Mostly Cloudy
3:19 AM 80.6 °F 85.4 °F 73.4 °F 79% 30.00 in 10.0 mi SW 5.8 mph - N/A   Mostly Cloudy
3:35 AM 80.6 °F 85.4 °F 73.4 °F 79% 30.00 in 10.0 mi SW 4.6 mph - N/A   Mostly Cloudy
3:55 AM 80.6 °F 84.6 °F 71.6 °F 74% 30.00 in 10.0 mi SW 6.9 mph - N/A   Mostly Cloudy
4:58 AM 81.0 °F 85.2 °F 72.1 °F 74% 30.02 in 10.0 mi SW 4.6 mph - N/A   Mostly Cloudy
5:58 AM 81.0 °F 85.2 °F 71.8 °F 74% 30.03 in 10.0 mi SW 3.5 mph - N/A   Overcast
6:40 AM 80.6 °F 85.4 °F 73.4 °F 79% 30.03 in 10.0 mi WSW 3.5 mph - N/A Rain Light Rain
6:50 AM 82.4 °F 88.2 °F 73.4 °F 74% 30.03 in 10.0 mi SW 3.5 mph - N/A   Partly Cloudy
6:58 AM 81.7 °F 87.1 °F 73.4 °F 76% 30.04 in 10.0 mi SW 2.3 mph - 0.00 in   Partly Cloudy
7:19 AM 80.6 °F 85.4 °F 73.4 °F 79% 30.04 in 10.0 mi SW 5.8 mph - N/A Rain Light Rain
7:29 AM 82.4 °F 88.2 °F 73.4 °F 74% 30.04 in 10.0 mi SW 6.9 mph - N/A   Partly Cloudy
7:58 AM 82.9 °F 88.3 °F 72.3 °F 70% 30.05 in 10.0 mi WSW 8.1 mph - 0.00 in   Mostly Cloudy
8:45 AM 84.2 °F 90.9 °F 73.4 °F 70% 30.05 in 10.0 mi SW 15.0 mph - N/A Rain Light Rain
8:50 AM 80.6 °F 85.4 °F 73.4 °F 79% 30.06 in 9.0 mi SSW 15.0 mph 20.7 mph N/A Rain Light Rain
8:58 AM 78.4 °F - 71.8 °F 80% 30.07 in 10.0 mi South 8.1 mph 19.6 mph 0.02 in Rain Light Rain
9:06 AM 77.0 °F - 69.8 °F 78% 30.06 in 10.0 mi South 17.3 mph - N/A Rain , Thunderstorm Light Thunderstorms and Rain
9:21 AM 77.0 °F - 69.8 °F 78% 30.06 in 10.0 mi SW 9.2 mph 23.0 mph N/A Rain Light Rain
9:48 AM 78.8 °F - 71.6 °F 78% 30.06 in 10.0 mi WSW 5.8 mph - N/A   Partly Cloudy
9:58 AM 80.4 °F 84.4 °F 72.0 °F 75% 30.07 in 10.0 mi WSW 8.1 mph - 0.02 in   Scattered Clouds
10:21 AM 82.4 °F 88.2 °F 73.4 °F 74% 30.07 in 10.0 mi WSW 11.5 mph - N/A   Light Drizzle
10:58 AM 82.0 °F 85.9 °F 70.0 °F 67% 30.09 in 10.0 mi WSW 9.2 mph - 0.00 in Rain Light Rain
10:59 AM 82.4 °F 86.3 °F 69.8 °F 66% 30.08 in 10.0 mi WSW 10.4 mph - N/A   Partly Cloudy
11:09 AM 84.2 °F 89.6 °F 71.6 °F 66% 30.07 in 10.0 mi WSW 13.8 mph 21.9 mph N/A   Light Drizzle
11:46 AM 84.2 °F 89.6 °F 71.6 °F 66% 30.07 in 10.0 mi SW 12.7 mph 18.4 mph N/A   Partly Cloudy
11:58 AM 84.4 °F 90.3 °F 72.1 °F 67% 30.08 in 10.0 mi SW 15.0 mph - 0.00 in   Partly Cloudy
12:07 PM 84.2 °F 90.9 °F 73.4 °F 70% 30.07 in 10.0 mi WSW 12.7 mph - N/A Rain Light Rain
12:36 PM 80.6 °F 84.6 °F 71.6 °F 74% 30.06 in 10.0 mi SW 11.5 mph - N/A   Scattered Clouds
12:55 PM 82.4 °F 86.3 °F 69.8 °F 66% 30.06 in 10.0 mi WSW 10.4 mph - N/A Rain Light Rain
12:58 PM 81.7 °F 85.4 °F 70.3 °F 68% 30.07 in 10.0 mi WSW 8.1 mph - 0.00 in Rain Light Rain
1:19 PM 80.6 °F 84.6 °F 71.6 °F 74% 30.05 in 10.0 mi WSW 6.9 mph - N/A   Scattered Clouds
1:58 PM 84.4 °F 89.7 °F 71.2 °F 65% 30.06 in 10.0 mi SW 12.7 mph - 0.00 in   Mostly Cloudy
2:58 PM 85.3 °F 91.5 °F 72.3 °F 65% 30.04 in 10.0 mi WSW 13.8 mph 20.7 mph N/A   Partly Cloudy
3:21 PM 82.4 °F 88.2 °F 73.4 °F 74% 30.05 in 8.0 mi WSW 23.0 mph 34.5 mph N/A Rain Light Rain
3:26 PM 78.8 °F - 73.4 °F 83% 30.05 in 2.5 mi WSW 18.4 mph 34.5 mph N/A Rain Heavy Rain
3:31 PM 77.0 °F - 71.6 °F 83% 30.05 in 1.0 mi WSW 16.1 mph 32.2 mph N/A Rain Heavy Rain
3:36 PM 75.2 °F - 71.6 °F 89% 30.04 in 1.2 mi West 9.2 mph 27.6 mph N/A Rain Heavy Rain
3:41 PM 75.2 °F - 73.4 °F 94% 30.04 in 2.5 mi West 6.9 mph 23.0 mph N/A Rain Rain
3:46 PM 77.0 °F - 71.6 °F 83% 30.04 in 4.0 mi West 11.5 mph - N/A Rain Light Rain
3:56 PM 77.0 °F - 71.6 °F 83% 30.04 in 10.0 mi West 9.2 mph - N/A Rain Light Rain
3:58 PM 77.0 °F - 71.6 °F 83% 30.05 in 10.0 mi West 12.7 mph - 0.19 in Rain Light Rain
4:03 PM 77.0 °F - 71.6 °F 83% 30.03 in 10.0 mi West 13.8 mph 20.7 mph N/A   Light Drizzle
4:06 PM 77.0 °F - 71.6 °F 83% 30.03 in 10.0 mi West 15.0 mph 20.7 mph N/A   Scattered Clouds
4:58 PM 79.2 °F - 71.1 °F 76% 30.04 in 10.0 mi West 11.5 mph - 0.00 in   Partly Cloudy
5:58 PM 80.1 °F 83.2 °F 70.0 °F 71% 30.04 in 10.0 mi West 8.1 mph - N/A   Clear
6:58 PM 79.5 °F - 69.8 °F 72% 30.04 in 10.0 mi WNW 6.9 mph - N/A   Partly Cloudy
7:58 PM 78.1 °F - 70.0 °F 76% 30.05 in 10.0 mi NW 4.6 mph - N/A   Clear
8:58 PM 77.4 °F - 71.4 °F 82% 30.05 in 10.0 mi NNE 1.2 mph - N/A   Overcast
9:06 PM 77.0 °F - 69.8 °F 78% 30.04 in 10.0 mi NE 1.2 mph - N/A   Light Drizzle
9:16 PM 77.0 °F - 69.8 °F 78% 30.04 in 10.0 mi Calm Calm - N/A   Overcast
9:27 PM 78.8 °F - 69.8 °F 74% 30.05 in 10.0 mi Calm Calm - N/A   Light Drizzle
9:42 PM 78.8 °F - 69.8 °F 74% 30.05 in 10.0 mi West 2.3 mph - N/A   Overcast
9:58 PM 78.8 °F - 70.9 °F 77% 30.06 in 10.0 mi West 2.3 mph - 0.00 in   Overcast
10:58 PM 80.2 °F 84.0 °F 71.8 °F 75% 30.07 in 10.0 mi SW 6.9 mph - N/A   Mostly Cloudy
11:58 PM 80.2 °F 83.9 °F 71.4 °F 74% 30.07 in 10.0 mi SW 5.8 mph - N/A   Mostly Cloudy